Content
SEND FEEDBACK

Daily
Averages
Monthly
Summary
United States of America

KEOSAUQUA, IOWA


Home > North America > United States > Iowa
Elevation: 680 feet     Latitude: 40 43N     Longitude: 091 58W

WEATHER
 
SELECT A DAY
Number of Records: 416,243;   Date Range: 4/23/95 - 12/26/14
 
SHARE

PRINT THIS DATA

[ ← Previous Day ]
WEATHER ALMANAC - JANUARY 23, 2013
[ Next Day → ]
[ °C ]   °F
Weather ElementAverageHighLow
Temperature19 °F30.2 °F (12:35 pm)8.6 °F (11:35 pm)
Dewpoint8.4 °F17.6 °F (12:55 pm)-2.2 °F (11:35 pm)
Humidity63.7 %79 % (7:35 am)53 % (8:35 pm)
Barometer30.26 in30.47 in (11:55 pm)30.16 in (12:15 pm)
Wind Speed12.3 mph24.2 mph (9:35 pm)
Wind Gust31.1 mph (7:55 pm)
Weather ElementAverage
Visibility10 mi
Wind DirectionWSW (252.1 °)

Weather ElementTotal
Precipitation---
Heating Degree Days45.6 (Base 65)
Averaged from 71 records on January 23, 2013
WEATHER CONDITIONS BREAKOUT
WIND DIRECTION BREAKOUT
WEATHER BY HOUR - JANUARY 23, 2013
[ °C ]   °F
Local TimeTemperatureDewpointHumidityBarometerVisibilityWind DirectionWind SpeedGust SpeedPrecipitationEventsConditions
12:35 AM12.2 °F3.2 °F67 %30.33 in10.0 miSouth (170°)3.5 mphOvercast
12:55 AM12.2 °F3.2 °F67 %30.31 in10.0 miSouth (170°)4.6 mphOvercast
1:15 AM14.0 °F3.2 °F62 %30.31 in10.0 miSouth (170°)4.6 mphOvercast
1:35 AM14.0 °F3.2 °F62 %30.30 in10.0 miSSE (160°)3.5 mphOvercast
1:55 AM14.0 °F3.2 °F62 %30.30 in10.0 miSSE (160°)3.5 mphOvercast
2:15 AM14.0 °F3.2 °F62 %30.30 in10.0 miSouth (170°)4.6 mphOvercast
2:35 AM15.8 °F3.2 °F58 %30.29 in10.0 miSouth (180°)5.8 mphOvercast
2:55 AM15.8 °F3.2 °F58 %30.29 in10.0 miSouth (170°)4.6 mphOvercast
3:15 AM15.8 °F3.2 °F58 %30.28 in10.0 miSouth (190°)5.8 mphOvercast
3:35 AM15.8 °F5.0 °F62 %30.27 in10.0 miSouth (180°)6.9 mphOvercast
3:55 AM15.8 °F3.2 °F58 %30.27 in10.0 miSouth (180°)5.8 mphOvercast
4:15 AM15.8 °F5.0 °F62 %30.26 in10.0 miSouth (180°)8.1 mphOvercast
4:35 AM15.8 °F6.8 °F68 %30.26 in10.0 miSouth (190°)6.9 mphOvercast
4:55 AM15.8 °F6.8 °F68 %30.25 in10.0 miSouth (190°)10.4 mphOvercast
5:15 AM15.8 °F5.0 °F62 %30.25 in10.0 miSouth (190°)9.2 mphOvercast
5:35 AM14.0 °F3.2 °F62 %30.24 in10.0 miSouth (190°)9.2 mphMostly Cloudy
5:55 AM12.2 °F3.2 °F67 %30.25 in10.0 miSouth (190°)6.9 mphClear
6:15 AM12.2 °F3.2 °F67 %30.23 in10.0 miSouth (180°)8.1 mphClear
6:35 AM12.2 °F3.2 °F67 %30.23 in10.0 miSouth (170°)6.9 mphClear
6:55 AM12.2 °F5.0 °F73 %30.22 in10.0 miSouth (170°)6.9 mphClear
7:15 AM12.2 °F5.0 °F73 %30.23 in10.0 miSouth (180°)4.6 mphClear
7:35 AM10.4 °F5.0 °F79 %30.23 in10.0 miSouth (170°)4.6 mphClear
7:55 AM10.4 °F5.0 °F79 %30.22 in10.0 miSouth (170°)6.9 mphClear
8:15 AM12.2 °F6.8 °F79 %30.21 in10.0 miSouth (170°)6.9 mphClear
8:35 AM12.2 °F6.8 °F79 %30.21 in10.0 miSouth (180°)8.1 mphClear
8:55 AM14.0 °F6.8 °F73 %30.21 in10.0 miSouth (180°)9.2 mphClear
9:15 AM15.8 °F8.6 °F73 %30.21 in10.0 miSouth (190°)8.1 mphClear
9:35 AM17.6 °F8.6 °F68 %30.21 in10.0 miSouth (190°)8.1 mphClear
9:55 AM19.4 °F8.6 °F63 %30.20 in10.0 miSouth (190°)6.9 mphClear
10:15 AM21.2 °F10.4 °F63 %30.20 in10.0 miSSW (200°)9.2 mphClear
10:35 AM21.2 °F10.4 °F63 %30.21 in10.0 miSW (220°)9.2 mphClear
10:55 AM24.8 °F12.2 °F59 %30.20 in10.0 miSSW (200°)6.9 mphClear
11:15 AM26.6 °F12.2 °F55 %30.19 in10.0 miSW (230°)9.2 mphClear
11:35 AM26.6 °F14.0 °F59 %30.18 in10.0 miWSW (250°)9.2 mphClear
11:55 AM28.4 °F15.8 °F59 %30.18 in10.0 miWest (270°)15.0 mphClear
12:15 PM28.4 °F15.8 °F59 %30.16 in10.0 miWest (280°)16.1 mph20.7 mphClear
12:35 PM30.2 °F15.8 °F55 %30.16 in10.0 miWest (280°)13.8 mph19.6 mphClear
12:55 PM30.2 °F17.6 °F60 %30.16 in10.0 miWNW (300°)15.0 mph21.9 mphClear
1:15 PM30.2 °F17.6 °F60 %30.16 in10.0 miWNW (290°)17.3 mphClear
1:35 PM30.2 °F17.6 °F60 %30.16 in10.0 miWNW (300°)15.0 mph19.6 mphClear
1:55 PM30.2 °F17.6 °F60 %30.16 in10.0 miWNW (290°)15.0 mph20.7 mphClear
2:15 PM30.2 °F17.6 °F60 %30.16 in10.0 miNW (310°)18.4 mph24.2 mphClear
2:35 PM30.2 °F17.6 °F60 %30.16 in10.0 miNW (310°)17.3 mph23.0 mphClear
2:55 PM28.4 °F17.6 °F64 %30.17 in10.0 miNW (310°)16.1 mph20.7 mphClear
3:15 PM28.4 °F17.6 °F64 %30.18 in10.0 miWNW (300°)16.1 mphClear
3:35 PM28.4 °F17.6 °F64 %30.19 in10.0 miWNW (300°)17.3 mphClear
3:55 PM28.4 °F17.6 °F64 %30.20 in10.0 miWNW (300°)19.6 mph24.2 mphClear
4:15 PM28.4 °F17.6 °F64 %30.20 in10.0 miWNW (300°)17.3 mph23.0 mphClear
4:35 PM26.6 °F17.6 °F69 %30.21 in10.0 miWNW (300°)17.3 mphClear
4:55 PM26.6 °F17.6 °F69 %30.22 in10.0 miWNW (300°)16.1 mph25.3 mphClear
5:15 PM26.6 °F15.8 °F64 %30.22 in10.0 miNW (310°)15.0 mph20.7 mphClear
5:35 PM24.8 °F15.8 °F69 %30.24 in10.0 miNW (310°)13.8 mph21.9 mphClear
5:55 PM24.8 °F15.8 °F69 %30.25 in10.0 miWNW (300°)15.0 mph18.4 mphClear
6:15 PM24.8 °F12.2 °F59 %30.26 in10.0 miNW (310°)18.4 mph24.2 mphClear
6:35 PM23.0 °F12.2 °F63 %30.28 in10.0 miNW (320°)16.1 mph21.9 mphClear
6:55 PM21.2 °F12.2 °F68 %30.28 in10.0 miNW (320°)19.6 mph23.0 mphClear
7:15 PM21.2 °F10.4 °F63 %30.30 in10.0 miNW (320°)12.7 mphClear
7:35 PM21.2 °F10.4 °F63 %30.30 in10.0 miNW (320°)17.3 mph25.3 mphClear
7:55 PM19.4 °F6.8 °F58 %30.32 in10.0 miNNW (330°)20.7 mph31.1 mphClear
8:15 PM17.6 °F5.0 °F58 %30.32 in10.0 miNW (320°)20.7 mph31.1 mphClear
8:35 PM17.6 °F3.2 °F53 %30.34 in10.0 miNNW (330°)20.7 mph26.5 mphClear
8:55 PM15.8 °F1.4 °F53 %30.35 in10.0 miNNW (330°)21.9 mph29.9 mphClear
9:15 PM14.0 °F1.4 °F57 %30.37 in10.0 miNNW (330°)21.9 mph27.6 mphClear
9:35 PM12.2 °F1.4 °F62 %30.37 in10.0 miNNW (340°)24.2 mph27.6 mphClear
9:55 PM12.2 °F1.4 °F62 %30.40 in10.0 miNNW (340°)18.4 mph24.2 mphClear
10:15 PM10.4 °F1.4 °F67 %30.40 in10.0 miNNW (330°)19.6 mph24.2 mphClear
10:35 PM10.4 °F-0.4 °F62 %30.43 in10.0 miNNW (340°)17.3 mph20.7 mphClear
10:55 PM10.4 °F-0.4 °F62 %30.43 in10.0 miNorth (350°)18.4 mph25.3 mphClear
11:15 PM10.4 °F-0.4 °F62 %30.45 in10.0 miNNW (340°)13.8 mph23.0 mphClear
11:35 PM8.6 °F-2.2 °F62 %30.46 in10.0 miNorth (350°)17.3 mphClear
11:55 PM8.6 °F-2.2 °F62 %30.47 in10.0 miNorth (350°)18.4 mphClear
Hourly data recorded from KFFL, located miles away from Keosauqua, Iowa







STORIES FROM OUR PARTNERS